[[{"header":{"parameterUnit":"m.s-1","parameterCategory":1,"la1":30.2991,"la2":30.254,"lo1":-89.0895,"lo2":-89.0444,"dy":0.0017,"dx":0.0017,"nx":28,"ny":28,"refTime":"2025-12-13T03:00:00:Z","depth":0,"parameterNumber":2,"parameterNumberName":"U-component_of_WINDS"},"data":[0,0,0,0,0,0,0,0,0,0,0,0,0,0,0,0,0,0,0,0,0,0,0,0,0,0,0,0,0,0,0,0,0,0,0,0,0,0,0,0,0,0,0,0,0,0,0,0,0,0,0,0,0,0,0,0,0,0,-1.6366,-1.6367,0,-1.6421,-1.6422,-1.6422,-1.6409,-1.6408,-1.6407,-1.6406,-1.6463,-1.6465,-1.6468,0,0,0,0,0,0,0,0,0,0,0,0,0,-1.6249,-1.6251,-1.6366,-1.6367,-1.6367,-1.6421,-1.6422,-1.6422,-1.6409,-1.6408,-1.6406,-1.6405,-1.6462,-1.6465,-1.6468,0,0,0,0,0,0,0,0,0,0,0,0,0,-1.6302,-1.6252,-1.6366,-1.6367,-1.6368,-1.6421,-1.6422,-1.6423,-1.6409,-1.6408,-1.6406,-1.6404,-1.6461,-1.6465,-1.6468,-1.6524,0,0,-1.648,-1.6482,0,0,0,0,0,0,0,0,-1.6299,-1.6306,-1.6366,-1.6367,-1.6368,-1.6406,-1.6401,-1.6457,-1.641,-1.6393,-1.6406,-1.6404,-1.6445,-1.645,-1.6464,-1.6527,-1.6529,-1.648,-1.6483,-1.6484,-1.6485,0,0,0,0,0,0,0,-1.6295,-1.6304,-1.6388,-1.6367,-1.6368,-1.6365,-1.637,-1.6412,-1.6428,-1.6395,-1.6394,-1.6401,-1.6446,-1.6461,-1.6465,-1.653,-1.648,-1.6484,-1.6486,-1.6487,-1.6639,-1.664,0,0,0,0,0,0,-1.6291,-1.6301,-1.6386,-1.6389,-1.6329,-1.6368,-1.6375,-1.6396,-1.6427,-1.6431,-1.6402,-1.64,-1.6455,-1.6461,-1.6467,-1.6533,-1.6484,-1.6488,-1.649,-1.6637,-1.6639,-1.6641,0,0,0,0,0,0,-1.6288,-1.6298,-1.6384,-1.6345,-1.6355,-1.6372,-1.6396,-1.6398,-1.6413,-1.6433,-1.6435,-1.6414,-1.6454,-1.6462,-1.6509,-1.6535,-1.6489,-1.6493,-1.6635,-1.6637,-1.664,-1.6665,0,0,0,0,0,0,-1.6285,-1.6298,-1.6319,-1.6345,-1.6358,-1.6425,-1.6397,-1.64,-1.6419,-1.6417,-1.6445,-1.6448,-1.6453,-1.6504,-1.6513,-1.6539,-1.6496,-1.6633,-1.6636,-1.6639,-1.6662,-1.6668,-1.6673,0,0,0,0,0,-1.6281,-1.6324,-1.632,-1.633,-1.6384,-1.6426,-1.6433,-1.6438,-1.6421,-1.6442,-1.6455,-1.6447,-1.6531,-1.6509,-1.6519,-1.6547,-1.6631,-1.6635,-1.6639,-1.6659,-1.6667,-1.6673,0,0,0,0,0,0,-1.6301,-1.6328,-1.6323,-1.6377,-1.6399,-1.6424,-1.6451,-1.6446,-1.6474,-1.6471,-1.6476,-1.6482,-1.653,-1.6544,-1.6519,-1.6601,-1.6578,-1.6585,-1.659,-1.6598,-1.6603,-1.6599,-1.6499,0,0,0,0,0,-1.6312,-1.6344,-1.6365,-1.641,-1.6422,-1.6435,-1.6453,-1.6455,-1.6478,-1.6488,-1.6504,-1.6527,-1.6559,-1.6579,-1.6609,-1.6664,-1.6669,-1.6688,-1.6694,-1.6699,-1.6703,-1.6732,-1.674,-1.6654,-1.6654,-1.6654,0,0,-1.6334,-1.6353,-1.6373,-1.6415,-1.6432,-1.6465,-1.6443,-1.6478,-1.6502,-1.6493,-1.6538,-1.6551,-1.6578,-1.6628,-1.6652,-1.6641,-1.6728,-1.6704,-1.6707,-1.6709,-1.6737,-1.6745,-1.6752,-1.6656,-1.6656,-1.6656,0,0,-1.6391,-1.6409,-1.6447,-1.6465,-1.6492,-1.65,-1.6509,-1.6535,-1.6542,-1.6588,-1.6581,-1.661,-1.6664,-1.6683,-1.6699,-1.6762,-1.6755,-1.6772,-1.6802,-1.6829,-1.6836,-1.6842,-1.6863,-1.687,-1.6777,-1.6777,-1.6777,0,-1.6415,-1.6464,-1.6468,-1.6504,-1.6522,-1.6515,-1.6553,-1.6571,-1.6606,-1.6619,-1.6606,-1.6673,-1.6691,-1.6745,-1.676,-1.6774,-1.6784,-1.6768,-1.6835,-1.6841,-1.6846,-1.6866,-1.6874,-1.6779,-1.6779,-1.6779,-1.6778,0,-1.6491,-1.6525,-1.6553,-1.6586,-1.6608,-1.6645,-1.6655,-1.6676,-1.6676,-1.6685,-1.673,-1.6751,-1.6784,-1.6798,-1.6798,-1.6852,-1.6844,-1.6833,-1.681,-1.6856,-1.6875,-1.6883,-1.6781,-1.6781,-1.678,-1.678,0,0,-1.6562,-1.6597,-1.6607,-1.6621,-1.665,-1.6676,-1.6712,-1.6744,-1.6762,-1.6787,-1.6816,-1.6862,-1.6852,-1.687,-1.6873,-1.6898,-1.6944,-1.6883,-1.6884,-1.6892,-1.7002,-1.7009,-1.7018,-1.694,-1.6942,-1.6943,-1.6999,0,-1.662,-1.6684,-1.6688,-1.6745,-1.6776,-1.6769,-1.6801,-1.6822,-1.6832,-1.6859,-1.687,-1.6901,-1.6886,-1.6897,-1.6921,-1.6933,-1.6966,-1.6929,-1.6967,-1.6968,-1.6959,-1.7028,-1.7035,-1.7088,-1.7007,-1.7008,-1.7009,0,-1.6696,-1.6722,-1.6782,-1.6805,-1.6818,-1.6846,-1.6875,-1.6901,-1.6925,-1.693,-1.695,-1.6949,-1.6986,-1.6963,-1.7013,-1.6988,-1.7004,-1.7013,-1.7015,-1.7017,-1.699,-1.7031,-1.7105,-1.7112,-1.7021,-1.702,-1.7019,0,-1.6739,-1.6789,-1.6831,-1.6844,-1.6872,-1.6892,-1.6905,-1.6926,-1.6945,-1.6971,-1.6982,-1.7012,-1.7028,-1.7052,-1.7058,-1.7041,-1.7108,-1.7086,-1.7113,-1.7112,-1.7126,-1.7125,-1.7202,-1.7139,-1.7139,-1.7139,-1.7139,0,-1.6802,-1.6839,-1.685,-1.6876,-1.6917,-1.6922,-1.6962,-1.6973,-1.6992,-1.702,-1.7017,-1.7043,-1.7051,-1.7079,-1.7085,-1.7124,-1.7132,-1.7137,-1.7138,-1.7136,-1.7135,-1.7145,-1.7141,-1.7141,-1.714,-1.714,-1.714,0,-1.6857,-1.6866,-1.6911,-1.6934,-1.6941,-1.6969,-1.6989,-1.7013,-1.7022,-1.7057,-1.7066,-1.708,-1.7112,-1.7121,-1.716,-1.7164,-1.721,-1.7208,-1.7202,-1.7201,-1.7227,-1.7224,-1.7312,-1.7323,-1.7255,-1.7255,-1.7256,0,-1.6895,-1.6923,-1.6949,-1.6967,-1.698,-1.7009,-1.7028,-1.7034,-1.7053,-1.7081,-1.7102,-1.7133,-1.7159,-1.721,-1.7224,-1.7253,-1.7251,-1.728,-1.7255,-1.7252,-1.7249,-1.7247,-1.7249,-1.7284,-1.7285,-1.7285,-1.7286,0,-1.6963,-1.6966,-1.6992,-1.702,-1.7042,-1.7065,-1.7087,-1.7102,-1.7111,-1.7133,-1.7165,-1.7184,-1.7223,-1.7254,-1.7284,-1.7297,-1.7292,-1.7294,-1.7301,-1.7299,-1.7293,-1.7295,-1.7212,-1.7291,-1.7291,-1.729,-1.729,-1.729,-1.7009,-1.7033,-1.7054,-1.7083,-1.71,-1.712,-1.7144,-1.7156,-1.7182,-1.7214,-1.7216,-1.7251,-1.7273,-1.7312,-1.7326,-1.7353,-1.7345,-1.7356,-1.7358,-1.7361,-1.7362,-1.729,-1.7359,-1.7359,-1.7359,-1.7358,-1.7358,0,-1.7074,-1.7088,-1.7115,-1.7145,-1.7168,-1.7162,-1.7185,-1.7205,-1.7235,-1.7256,-1.728,-1.7316,-1.7346,-1.7362,-1.7392,-1.741,-1.7409,-1.7417,-1.7415,-1.7418,-1.7369,-1.7358,-1.7418,-1.7418,-1.7418,-1.7418,-1.7418,-1.7418,-1.7111,-1.715,-1.7156,-1.7203,-1.7216,-1.7249,-1.7263,-1.7281,-1.7297,-1.7338,-1.7362,-1.7372,-1.7391,-1.7421,-1.7448,-1.7452,-1.7462,-1.7472,-1.7474,-1.7428,-1.7422,-1.7416,-1.7406,-1.7474,-1.7474,-1.7521,-1.7521,-1.7522]},{"header":{"parameterUnit":"m.s-1","parameterCategory":1,"la1":30.2991,"la2":30.254,"lo1":-89.0895,"lo2":-89.0444,"dy":0.0017,"dx":0.0017,"nx":28,"ny":28,"refTime":"2025-12-13T03:00:00:Z","depth":0,"parameterNumber":3,"parameterNumberName":"V-component_of_WINDS"},"data":[0,0,0,0,0,0,0,0,0,0,0,0,0,0,0,0,0,0,0,0,0,0,0,0,0,0,0,0,0,0,0,0,0,0,0,0,0,0,0,0,0,0,0,0,0,0,0,0,0,0,0,0,0,0,0,0,0,0,0.6507,0.6508,0,0.6579,0.658,0.6581,0.6595,0.6594,0.6593,0.6593,0.6665,0.6668,0.667,0,0,0,0,0,0,0,0,0,0,0,0,0,0.638,0.6383,0.6507,0.6508,0.6509,0.6579,0.658,0.6581,0.6595,0.6594,0.6593,0.6593,0.6664,0.6667,0.667,0,0,0,0,0,0,0,0,0,0,0,0,0,0.6442,0.6383,0.6507,0.6524,0.6527,0.6579,0.658,0.6581,0.6595,0.6594,0.6593,0.6592,0.6663,0.6667,0.6671,0.6711,0,0,0.6682,0.6683,0,0,0,0,0,0,0,0,0.6439,0.6447,0.6521,0.6523,0.6526,0.6577,0.6562,0.6625,0.6595,0.6569,0.6593,0.6592,0.6636,0.6642,0.6658,0.6714,0.6717,0.6682,0.6684,0.6686,0.6687,0,0,0,0,0,0,0,0.6434,0.6444,0.6536,0.6522,0.6525,0.6528,0.6536,0.6574,0.6607,0.6571,0.6572,0.6581,0.6638,0.6654,0.6659,0.6718,0.6682,0.6685,0.6688,0.6689,0.6812,0.6813,0,0,0,0,0,0,0.6427,0.644,0.6533,0.6538,0.6479,0.6531,0.654,0.6561,0.6606,0.6612,0.6581,0.6581,0.6648,0.6655,0.6662,0.6713,0.6686,0.6689,0.6692,0.6811,0.6812,0.6813,0,0,0,0,0,0,0.6425,0.6435,0.6531,0.6489,0.6502,0.6534,0.6558,0.6563,0.658,0.6614,0.662,0.6592,0.6648,0.6657,0.6699,0.6715,0.6691,0.6694,0.681,0.6811,0.6813,0.6814,0,0,0,0,0,0,0.6421,0.6434,0.645,0.649,0.6504,0.6566,0.6559,0.6565,0.6586,0.6587,0.6626,0.6631,0.6648,0.6693,0.6702,0.672,0.6697,0.6808,0.681,0.6812,0.6812,0.6815,0.6817,0,0,0,0,0,0.6416,0.6447,0.6451,0.6462,0.6524,0.6567,0.6575,0.6594,0.6588,0.6604,0.6626,0.663,0.6712,0.6697,0.6708,0.6727,0.6807,0.681,0.6812,0.6811,0.6814,0.6817,0,0,0,0,0,0,0.6408,0.6453,0.6457,0.6502,0.6531,0.6569,0.659,0.6597,0.6628,0.6627,0.6648,0.6657,0.6698,0.6716,0.6699,0.6768,0.6759,0.6764,0.6755,0.6758,0.6761,0.6756,0.67,0,0,0,0,0,0.6411,0.6443,0.648,0.6516,0.653,0.6558,0.6577,0.6589,0.662,0.6632,0.6657,0.6686,0.6718,0.6739,0.6771,0.6815,0.6824,0.6833,0.6835,0.6837,0.6841,0.6867,0.6872,0.6821,0.6821,0.6821,0,0,0.6419,0.6447,0.6465,0.6515,0.6539,0.6571,0.6568,0.6602,0.6626,0.6637,0.6678,0.6698,0.6732,0.6775,0.6795,0.6792,0.6857,0.684,0.6842,0.6845,0.687,0.6874,0.6879,0.6822,0.6822,0.6822,0,0,0.6449,0.6473,0.6506,0.653,0.6566,0.6585,0.6592,0.663,0.6644,0.6686,0.6695,0.6724,0.6779,0.6803,0.6823,0.6862,0.6868,0.6872,0.6885,0.691,0.6914,0.6918,0.6933,0.6938,0.6875,0.6875,0.6875,0,0.6453,0.6502,0.6522,0.6556,0.6577,0.6589,0.6623,0.6645,0.669,0.6704,0.6699,0.677,0.6793,0.6843,0.6853,0.6868,0.6878,0.6868,0.6912,0.6916,0.6919,0.6934,0.6939,0.6876,0.6876,0.6876,0.6875,0,0.6506,0.654,0.6562,0.6606,0.663,0.6663,0.6688,0.671,0.672,0.6738,0.6781,0.681,0.6848,0.6861,0.687,0.6912,0.6909,0.6907,0.6899,0.6924,0.6938,0.6944,0.6876,0.6876,0.6876,0.6876,0,0,0.6533,0.6588,0.6595,0.6616,0.6657,0.6683,0.6717,0.6755,0.6774,0.6804,0.6833,0.688,0.688,0.6902,0.6914,0.6935,0.6966,0.6932,0.6933,0.6938,0.7015,0.7016,0.7022,0.697,0.6971,0.6972,0.7012,0,0.6569,0.6631,0.6649,0.6701,0.6733,0.6745,0.6775,0.6803,0.6821,0.6851,0.6871,0.6904,0.69,0.6914,0.6936,0.6958,0.6982,0.6955,0.6998,0.6999,0.699,0.7029,0.7031,0.7067,0.7018,0.7019,0.7019,0,0.6619,0.6651,0.6706,0.6743,0.6757,0.6784,0.6821,0.6848,0.6881,0.6893,0.6918,0.6929,0.6965,0.6953,0.7004,0.6985,0.7003,0.7017,0.7019,0.7024,0.7011,0.7037,0.708,0.7085,0.7028,0.7027,0.7027,0,0.6634,0.6691,0.6731,0.6748,0.6793,0.6811,0.6831,0.6862,0.6884,0.6916,0.693,0.6965,0.6985,0.7012,0.7032,0.7022,0.7081,0.7071,0.7092,0.7091,0.7104,0.7103,0.7152,0.7115,0.7114,0.7114,0.7114,0,0.6672,0.6706,0.6739,0.6764,0.6802,0.6823,0.686,0.688,0.6908,0.6937,0.6949,0.6976,0.7,0.7031,0.7046,0.7086,0.7094,0.7105,0.7109,0.7105,0.7104,0.7118,0.7116,0.7116,0.7116,0.7115,0.7115,0,0.6696,0.672,0.6765,0.6804,0.6814,0.684,0.6874,0.6898,0.6917,0.6954,0.6964,0.6993,0.703,0.7052,0.7098,0.7109,0.7153,0.7155,0.7142,0.7144,0.7164,0.7163,0.7224,0.7234,0.7189,0.719,0.719,0,0.672,0.6746,0.6788,0.6808,0.6828,0.6861,0.6883,0.6905,0.6928,0.6967,0.6987,0.7024,0.7056,0.7113,0.7139,0.7174,0.7178,0.7197,0.7183,0.7178,0.718,0.7178,0.7181,0.72,0.72,0.72,0.7201,0,0.6759,0.6769,0.6801,0.6838,0.6865,0.6894,0.6924,0.694,0.6967,0.6992,0.7029,0.7053,0.7101,0.7138,0.7176,0.7195,0.7203,0.7205,0.7212,0.7208,0.72,0.7206,0.7149,0.7203,0.7203,0.7203,0.7203,0.7203,0.6784,0.6808,0.6842,0.6877,0.6902,0.6929,0.6955,0.6977,0.7009,0.705,0.706,0.71,0.7132,0.7184,0.7204,0.7236,0.7233,0.7243,0.7245,0.7248,0.7249,0.7194,0.7242,0.7242,0.7242,0.7242,0.7242,0,0.6825,0.6847,0.688,0.6921,0.6949,0.6954,0.6987,0.701,0.7045,0.7074,0.7105,0.7149,0.7185,0.7213,0.725,0.727,0.7274,0.7279,0.7278,0.7283,0.7248,0.7239,0.7275,0.7275,0.7275,0.7275,0.7275,0.7275,0.685,0.6891,0.6905,0.6959,0.6981,0.7021,0.7039,0.7065,0.7089,0.7137,0.7167,0.7186,0.7215,0.7254,0.7288,0.7295,0.7309,0.7313,0.7321,0.7289,0.7285,0.7282,0.7273,0.7316,0.7316,0.7354,0.7354,0.7354]}]]